RH
74 74 72 70 79 83 86 86 87 86 86 87 85 86 88 91 81 73 82 76 82 68 72 66 44 51 42 50 52 53 62 67 58 58 47 32 32 27 27 32 38 38 35 48 80
73 73 71 70 71 72 84 86 85 89 86 82 82 84 89 88 82 79 66 74 84 86 87 84 46 44 49 52 54 55 64 59 49 47 32 28 31 28 29 35 37 43 66 89 98
74 73 73 66 74 69 82 79 79 84 84 85 75 84 92 93 80 51 20 55 77 67 88 88 60 46 56 55 53 55 57 49 45 41 29 31 27 28 32 39 34 36 56 92 93
76 74 72 74 72 73 73 78 73 70 77 80 83 83 93 88 73 49 62 75 73 68 82 87 47 54 61 58 49 58 52 46 41 41 36 35 27 25 33 29 27 33 56 84 90
77 76 73 74 72 73 74 74 73 74 76 78 82 82 85 85 76 41 65 68 70 78 89 79 74 52 55 59 52 54 49 46 40 40 39 33 34 31 28 28 33 48 64 72 79
79 82 80 76 75 74 79 75 74 74 74 77 79 82 84 93 58 50 53 56 66 68 66 77 54 47 47 48 55 49 46 42 42 43 38 35 34 30 26 25 44 56 57 62 68
84 81 88 86 78 80 82 76 75 77 76 72 78 82 78 74 61 57 55 57 63 77 68 58 68 44 45 47 43 44 47 46 44 39 39 36 39 35 26 26 35 51 53 61 62
84 85 87 84 83 84 82 79 80 78 73 72 79 80 82 65 61 65 56 54 56 48 77 77 62 48 48 39 40 49 49 56 41 40 38 36 49 36 28 26 26 33 52 59 60
83 82 86 85 90 86 83 83 73 69 76 76 87 86 77 53 64 58 57 66 63 64 67 74 70 63 49 57 58 51 52 57 45 39 36 38 39 30 30 28 26 25 28 53 55
83 80 83 84 88 87 87 75 34 66 60 80 82 88 72 55 58 54 52 59 70 58 78 80 86 76 64 57 68 66 57 45 46 38 39 43 42 32 28 31 27 25 25 27 41
83 82 83 84 89 89 81 55 76 69 63 72 69 68 61 54 54 48 46 42 60 68 96 80 96 92 76 59 42 50 49 47 39 31 39 38 34 31 30 32 32 30 28 28 28
85 83 87 83 92 92 77 74 88 81 88 59 58 61 55 52 67 51 45 50 84 89 74 90 93 70 60 64 66 48 52 48 39 31 36 36 38 32 31 28 27 25 24 26 25
90 85 88 85 84 78 76 69 70 78 97 58 49 56 59 58 71 64 42 43 69 87 73 87 74 62 68 67 76 71 53 51 43 37 35 36 40 36 31 30 27 26 24 21 21
92 89 88 87 80 77 73 60 65 75 90 60 65 61 55 52 68 45 43 42 50 80 66 75 61 72 70 78 64 78 52 44 44 47 70 36 46 41 33 30 30 26 26 24 23
93 90 84 89 78 84 65 61 62 76 63 26 50 50 58 60 59 58 43 45 61 81 71 61 66 75 80 75 58 73 52 50 46 48 56 50 53 40 33 32 27 26 28 28 26
93 86 86 94 90 79 70 62 66 77 84 46 42 40 46 39 40 56 58 44 46 58 76 65 44 55 67 57 58 56 54 52 49 51 94 68 57 47 37 34 29 24 22 26 27
95 85 89 87 85 73 70 65 79 77 39 36 47 44 40 68 70 64 66 75 76 95 90 92 77 56 59 67 62 65 84 97 97 94 85 57 69 51 38 32 25 22 21 25 26
88 90 88 88 86 75 64 76 78 46 50 41 44 42 47 68 66 64 62 80 76 86 96 96 97 64 61 65 74 69 91 93 88 89 60 59 76 50 38 31 28 27 24 26 26
93 97 93 87 87 84 85 96 80 55 42 50 48 52 67 80 66 63 57 60 70 100 99 99 91 62 54 54 56 78 94 56 72 60 64 59 46 37 37 35 32 29 30 27 28
98 92 87 74 77 84 96 81 67 51 50 55 75 58 94 74 68 78 78 48 59 71 99 94 97 64 58 53 52 62 56 78 76 96 78 66 55 38 40 32 30 29 29 29 30
93 99 81 78 89 99 95 87 70 54 52 58 67 75 72 69 76 85 78 60 84 81 90 100 100 93 63 69 63 72 69 71 80 92 65 68 54 42 34 28 26 24 25 29 28
98 98 93 90 99 98 98 77 56 57 54 65 72 76 80 75 95 88 82 80 85 92 90 97 99 94 100 62 46 56 55 69 81 98 80 57 43 33 30 28 28 26 27 28 28
99 96 97 93 97 97 91 90 81 72 70 73 78 80 74 93 96 94 83 75 97 98 90 85 93 93 94 94 68 61 54 56 58 67 72 64 50 33 34 34 31 30 29 28 29
100 97 99 100 90 82 94 93 87 76 80 77 90 87 87 91 79 94 68 61 56 63 73 98 91 91 89 94 98 98 79 58 60 66 56 62 45 36 30 31 32 32 30 27 31
100 94 78 97 97 92 88 92 93 82 75 68 78 84 82 92 89 88 59 63 54 77 98 100 94 92 89 68 91 93 95 87 72 66 62 48 54 40 33 29 28 28 32 29 30
98 97 89 91 78 95 94 92 84 70 69 72 74 60 66 92 70 92 75 72 80 83 93 91 89 76 75 50 52 61 93 99 89 72 72 67 58 38 32 32 31 30 30 30 30
100 89 90 91 95 94 85 74 78 66 61 52 55 78 78 67 55 59 64 62 63 72 83 89 89 89 81 57 57 67 53 79 94 83 82 84 54 40 39 32 28 30 33 30 29
Wind_Speed
19 19 20 20 20 21 21 21 21 21 22 22 22 23 22 23 30 36 22 26 14 14 11 10 5 8 6 4 4 4 4 8 8 7 5 2 5 2 1 7 2 6 2 1 28
18 18 19 20 21 21 22 22 20 21 21 22 23 22 22 23 28 35 40 27 23 23 20 14 7 6 3 4 4 5 9 11 6 5 4 2 4 7 6 6 4 3 4 16 24
19 20 19 19 19 20 21 22 23 23 23 23 22 23 21 20 15 13 28 31 29 31 34 23 14 6 5 4 6 5 15 10 4 8 3 3 2 4 6 4 7 14 13 16 21
18 19 20 19 20 21 22 23 23 24 24 23 22 23 22 12 9 7 4 14 5 11 28 21 7 8 7 12 6 6 9 9 16 5 3 3 2 2 6 5 2 5 14 18 20
18 18 19 19 19 21 22 23 24 25 26 25 24 22 18 8 16 26 14 16 19 4 15 15 14 13 13 7 7 8 7 9 8 6 5 3 6 4 5 7 3 9 16 19 20
18 18 17 18 19 21 23 25 26 26 28 26 23 20 16 24 15 16 20 25 13 11 11 13 7 10 7 10 13 6 12 14 7 15 6 6 7 5 5 3 3 10 16 17 21
18 18 18 16 18 21 23 26 28 29 30 29 24 22 17 25 9 17 24 28 20 13 13 17 23 5 5 2 10 9 6 7 12 15 7 6 14 8 10 5 5 9 11 12 15
18 18 17 16 18 20 23 27 30 33 32 29 23 21 16 16 16 16 29 34 24 23 21 16 13 8 7 3 2 6 4 16 10 8 8 15 23 9 10 8 11 10 9 12 15
17 17 16 16 17 19 23 27 32 29 26 22 15 12 11 11 6 9 14 18 17 13 23 19 6 7 4 11 3 6 7 13 8 13 9 13 9 20 10 11 11 11 12 12 13
17 16 15 15 15 17 21 26 22 16 8 4 6 3 6 6 5 8 15 12 11 10 7 11 7 7 7 10 16 11 17 5 9 9 9 7 7 6 4 13 17 16 13 13 13
18 16 14 13 14 14 19 13 5 3 8 6 13 16 21 23 29 18 13 15 7 8 13 18 13 13 22 24 20 11 6 17 11 4 7 18 17 18 13 7 11 12 12 14 15
19 16 12 11 11 13 6 3 4 6 12 19 20 26 38 24 20 25 26 10 9 17 20 13 24 20 18 18 16 15 7 8 2 4 5 2 11 15 13 13 13 14 13 14 12
20 15 11 9 11 7 4 2 12 14 5 12 7 7 6 9 9 17 10 8 14 16 22 23 12 23 22 17 18 21 20 10 2 4 1 4 7 8 6 9 13 13 14 15 17
20 15 10 8 5 2 5 7 11 10 4 7 4 5 1 4 5 17 12 13 10 20 23 22 24 21 26 24 17 20 18 15 10 3 4 5 7 7 6 13 11 15 14 16 16
20 15 11 10 3 3 4 7 13 3 5 4 3 3 3 2 9 4 13 11 22 17 12 23 22 29 25 21 19 10 12 17 16 13 3 3 4 6 6 12 13 13 15 16 17
19 14 12 9 9 7 3 7 3 5 7 6 2 4 7 5 7 7 6 7 5 16 25 22 19 24 25 20 23 14 10 13 11 9 8 19 13 11 15 7 6 14 13 15 13
18 14 16 12 4 11 4 3 4 3 4 3 3 6 13 8 5 9 8 9 9 9 22 11 27 15 13 21 20 19 8 5 6 7 7 18 13 22 7 5 13 15 15 10 10
16 15 14 16 15 12 8 4 4 4 6 5 6 13 9 6 3 5 12 10 8 17 18 13 13 30 18 21 11 22 16 5 7 6 12 10 12 8 17 22 15 13 11 7 8
17 16 10 15 16 16 4 2 6 6 3 5 9 5 4 2 5 6 3 6 3 10 5 6 15 14 21 10 25 17 11 15 4 3 1 5 6 6 4 8 11 15 11 15 12
17 10 5 13 19 17 2 8 5 4 2 4 2 3 3 4 7 5 3 5 4 3 1 5 9 5 24 16 24 15 22 10 6 8 7 5 5 8 11 14 13 13 15 15 9
10 4 5 20 22 4 4 6 4 6 3 5 4 5 5 5 6 4 6 7 3 3 4 7 6 6 15 20 24 17 15 6 4 3 5 4 6 7 12 18 17 17 13 7 8
5 3 17 30 4 2 3 5 6 5 6 8 4 9 10 5 5 3 6 5 4 2 4 3 4 5 8 18 23 24 21 19 8 7 4 2 8 3 11 13 10 9 3 6 7
5 3 19 13 5 4 2 3 4 5 7 4 6 8 5 4 5 6 6 9 6 3 2 2 2 5 6 4 15 20 20 21 11 4 13 11 5 2 2 6 6 6 6 5 6
3 4 2 3 1 6 4 4 4 6 6 5 5 4 4 4 6 4 6 3 8 9 14 4 4 6 9 5 3 7 17 20 22 15 16 13 17 7 4 5 5 6 4 4 6
3 4 3 5 5 6 6 3 3 3 5 5 3 4 2 4 4 2 3 8 6 6 6 1 3 5 11 16 12 13 13 16 23 20 17 20 23 17 10 7 6 4 5 5 6
4 4 1 3 5 12 10 7 13 11 5 4 7 11 7 5 4 4 5 1 5 2 3 3 5 14 13 16 10 9 11 11 17 16 11 14 18 5 9 6 7 8 7 7 7
6 3 4 8 6 8 8 14 11 7 7 11 9 1 5 10 7 6 6 11 14 12 2 3 3 4 5 7 15 9 13 14 8 18 16 16 28 11 10 17 17 10 7 8 9
Wind_Direction
337 338 338 337 333 332 333 331 333 332 330 326 324 321 319 307 300 296 271 246 244 261 288 306 268 206 185 212 176 147 201 224 210 181 237 183 200 165 115 132 205 179 149 62 145
330 331 331 331 334 325 329 330 327 328 326 324 323 320 317 319 303 280 263 253 248 252 258 250 230 185 211 205 198 186 216 223 208 207 228 284 220 167 159 148 196 160 66 132 147
323 326 325 326 329 329 327 323 324 322 321 322 320 321 321 325 305 272 286 239 243 254 246 234 237 178 203 185 197 193 228 209 237 228 210 262 232 188 139 206 201 192 165 157 161
315 316 320 324 323 326 322 324 320 316 314 314 317 319 321 320 276 324 87 126 351 311 217 196 195 199 193 210 208 221 223 194 231 231 234 252 305 272 194 211 250 210 155 158 174
307 308 313 314 317 319 319 318 316 314 312 306 307 312 317 249 248 272 279 293 334 342 166 186 201 199 206 184 202 224 224 210 203 209 222 315 257 252 254 255 353 141 154 178 185
296 297 298 305 312 313 314 316 314 311 308 303 295 297 294 267 266 282 286 295 294 288 259 210 212 205 227 216 192 197 215 228 201 233 234 220 259 148 275 183 162 168 181 183 192
289 293 296 302 309 310 311 313 311 306 302 298 289 283 263 250 258 280 297 292 292 297 266 238 226 224 172 208 209 212 218 237 222 222 212 166 259 211 228 166 206 208 193 192 202
288 292 296 303 305 308 311 313 310 303 298 294 287 272 262 265 274 270 280 284 291 263 266 267 249 224 208 282 124 179 200 237 213 175 222 198 249 233 225 185 212 216 211 210 199
281 293 295 302 306 310 312 314 310 304 297 290 279 229 266 284 236 266 281 260 268 271 243 256 244 204 150 216 271 204 226 222 235 199 187 200 226 241 193 192 222 219 215 216 220
273 284 289 299 308 311 316 319 316 315 334 283 228 207 260 249 223 289 311 329 246 242 262 219 229 191 173 177 214 207 220 205 206 200 198 184 222 254 181 198 211 213 216 219 220
263 270 279 295 305 315 325 339 6 338 15 253 266 270 279 273 291 274 275 324 238 228 221 201 217 205 194 212 218 175 196 220 226 203 172 221 227 228 221 196 223 225 222 223 224
252 260 270 291 301 317 342 70 127 284 292 267 245 252 260 277 289 274 287 271 206 212 217 213 220 211 213 216 219 225 206 213 225 163 183 172 242 242 212 229 225 225 229 228 228
244 249 255 271 294 302 354 287 333 340 278 293 230 239 246 208 248 284 215 213 235 224 218 221 202 213 208 208 204 220 222 206 158 139 89 326 253 256 219 216 237 238 237 237 234
238 240 242 252 277 220 305 321 332 337 309 280 268 264 199 226 264 285 230 214 230 237 209 234 227 215 213 216 205 219 218 218 209 143 220 185 276 251 228 226 224 231 224 230 235
232 230 231 225 196 204 283 322 334 101 359 264 260 154 73 44 292 320 328 197 230 232 192 216 219 211 221 204 200 228 195 210 214 220 166 207 270 251 228 230 237 240 231 231 231
223 223 217 199 216 235 257 334 57 50 252 313 326 348 8 333 304 330 358 245 271 261 255 244 216 216 215 205 206 194 192 193 202 198 227 229 226 230 236 192 226 240 235 227 221
210 215 210 196 202 163 106 45 38 156 334 302 354 345 344 346 323 352 334 294 227 215 248 243 235 207 193 210 191 199 195 161 201 192 230 210 216 241 249 214 214 229 240 230 221
199 209 205 206 201 161 107 62 161 235 264 313 353 327 303 360 292 319 337 343 272 255 280 221 220 209 185 200 185 188 191 161 163 157 225 144 215 234 210 232 234 228 238 246 233
188 187 185 208 207 171 100 126 214 217 230 329 329 301 320 49 332 338 281 280 279 4 336 292 219 184 198 181 176 193 206 181 84 343 37 176 269 278 227 231 229 240 218 238 236
160 161 180 190 175 146 148 225 227 224 298 60 274 270 267 294 336 8 278 251 286 42 265 292 299 218 191 182 197 183 193 185 209 174 227 219 266 212 193 209 215 229 230 226 224
131 137 153 162 146 175 217 213 221 236 218 200 227 257 252 284 235 249 252 282 84 333 346 299 247 324 198 198 187 198 197 186 135 203 224 174 245 207 192 212 214 226 225 194 201
120 159 167 151 169 193 191 189 211 219 214 236 237 245 248 257 259 252 247 232 140 271 323 335 295 304 251 200 206 197 200 187 195 177 214 214 243 285 216 207 223 237 102 212 211
132 133 181 176 198 197 277 232 227 216 214 216 231 215 219 247 284 228 309 4 42 288 269 312 38 330 286 228 211 203 205 194 206 124 211 216 232 314 189 244 229 232 215 211 164
138 154 192 205 188 144 153 229 232 207 229 228 255 268 271 262 234 281 319 300 304 279 267 213 197 215 259 354 283 292 225 207 204 207 215 210 235 233 247 241 239 214 202 198 179
160 202 194 181 196 174 147 172 213 228 216 206 240 243 276 289 347 307 306 318 311 352 7 275 265 240 278 297 277 261 261 249 201 209 212 216 223 212 216 233 235 178 162 178 175
153 156 141 173 150 194 187 197 226 239 203 211 248 270 262 210 248 282 288 308 271 311 32 15 299 317 296 293 296 301 252 247 219 201 236 251 257 158 222 225 252 190 186 189 188
161 162 133 174 170 185 192 202 208 206 235 234 248 4 275 264 255 258 236 263 252 267 229 261 250 280 266 317 308 295 207 188 224 219 214 234 239 180 212 217 229 252 201 205 207